KUIPER-00454

导读 | 豆包AI

**KUIPER-00454(NORAD编号68948)**是美国亚马逊“柯伊伯计划”(Project Kuiper)卫星互联网星座中的一颗低轨宽带卫星。该计划旨在构建全球覆盖的近地轨道卫星互联网,提供高速低延迟宽带服务,挑战SpaceX星链的市场主导地位。卫星运行于约600公里高度的近地轨道,属于柯伊伯星座组网卫星,采用V/Ku波段提供固定卫星服务,支撑全球尤其是偏远地区的网络连接,助力亚马逊太空互联网基础设施部署。

基本信息
目录编号:
68948
目录名称:
KUIPER-00454
国际标识:
2026-098AF
轨道中心:
EARTH
卫星名称:
KUIPER-00454
卫星全名:
KUIPER-00454
卫星状态:
在轨 (已飞行31 天)
发射日期:
2026-04-30 UTC
国别 :
美国 (US)
星等 :
--
轨道信息
数据来源 国际轨道数据
星历时间: 2026-05-31T12:34:18+0800
7小时前
查看轨道信息
半长轴: 6858.928km
偏心率: 0.001639
轨道倾角: 51.878°
近地点辐角 82.082°
升交点赤经 150.570°
平近点角 278.203°
近地点: 469.549km
远地点: 492.033km
周期: 94.220分钟
每日圈数: 15.283347
详细信息
使用方式:
暂无
2D轨道图
3D轨道图
轨道高度分析图
轨道倾角分析图
轨道综合分析图
查看轨道综合分析图